観測年月日,2015/10/15,,,
観測者,丸山　敬貴,,,
観測地点,25,,,
温度計番号,A008,,,
,,,,
時刻,気温,風向,風速,備考
 15:00:00,   21.694367906560945     
 15:01:00,   21.797630548429726     
 15:02:00,   21.694367906560945     
 15:03:00,   21.694367906560945     
 15:04:00,   21.694367906560945     
 15:05:00,   21.591105264692164     
 15:06:00,   21.694367906560945     
 15:07:00,   21.694367906560945     
 15:08:00,   21.694367906560945     
 15:09:00,   21.694367906560945     
 15:10:00,   21.694367906560945     
 15:11:00,   21.797630548429726     
 15:12:00,   21.797630548429726     
 15:13:00,   21.797630548429726     
 15:14:00,   21.591105264692164     
 15:15:00,   21.487842622823383     
 15:16:00,   21.487842622823383     
 15:17:00,   21.487842622823383     
 15:18:00,   21.487842622823383     
 15:19:00,   21.694367906560945     
 15:20:00,   21.797630548429726     
 15:21:00,   21.694367906560945     
 15:22:00,   21.797630548429726     
 15:23:00,   21.694367906560945     
 15:24:00,   21.694367906560945     
 15:25:00,   21.694367906560945     
 15:26:00,   21.797630548429726     
 15:27:00,   21.797630548429726     
 15:28:00,   21.797630548429726     
 15:29:00,   21.694367906560945     
 15:30:00,   21.694367906560945     
 15:31:00,   21.694367906560945     
 15:32:00,   21.591105264692164     
 15:33:00,   21.591105264692164     
 15:34:00,   21.591105264692164     
 15:35:00,   21.694367906560945     
 15:36:00,   21.694367906560945     
 15:37:00,   21.591105264692164     
 15:38:00,   21.591105264692164     
 15:39:00,   21.591105264692164     
 15:40:00,   21.694367906560945     
 15:41:00,   21.694367906560945     
 15:42:00,   21.591105264692164     
 15:43:00,   21.591105264692164     
 15:44:00,   21.591105264692164     
 15:45:00,   21.591105264692164     
 15:46:00,   21.487842622823383     
 15:47:00,   21.178054697217039     
 15:48:00,   21.074792055348258     
 15:49:00,   20.971529413479477     
 15:50:00,   20.868266771610696     
 15:51:00,   20.971529413479477     
 15:52:00,   20.868266771610696     
 15:53:00,   20.868266771610696     
 15:54:00,   20.868266771610696     
 15:55:00,   20.868266771610696     
 15:56:00,   20.868266771610696     
 15:57:00,   20.765004129741918     
 15:58:00,   20.868266771610696     
 15:59:00,   20.868266771610696     
 16:00:00,   20.868266771610696     
 16:01:00,   20.868266771610696     
 16:02:00,   20.868266771610696     
 16:03:00,   20.868266771610696     
 16:04:00,   20.868266771610696     
 16:05:00,   20.765004129741918     
 16:06:00,   20.765004129741918     
 16:07:00,   20.765004129741918     
 16:08:00,   20.765004129741918     
 16:09:00,   20.661741487873133     
 16:10:00,   20.661741487873133     
 16:11:00,   20.661741487873133     
 16:12:00,   20.661741487873133     
 16:13:00,   20.661741487873133     
 16:14:00,   20.661741487873133     
 16:15:00,   20.661741487873133     
 16:16:00,   20.558478846004352     
 16:17:00,   20.558478846004352     
 16:18:00,   20.455216204135574     
 16:19:00,   20.455216204135574     
 16:20:00,   20.455216204135574     
 16:21:00,   20.455216204135574     
 16:22:00,   20.455216204135574     
 16:23:00,   20.351953562266790     
 16:24:00,   20.351953562266790     
 16:25:00,   20.351953562266790     
 16:26:00,   20.351953562266790     
 16:27:00,   20.351953562266790     
 16:28:00,   20.351953562266790     
 16:29:00,   20.351953562266790     
 16:30:00,   20.351953562266790     
 16:31:00,   20.351953562266790     
 16:32:00,   20.661741487873133     
 16:33:00,   20.661741487873133     
 16:34:00,   20.661741487873133     
 16:35:00,   20.661741487873133     
 16:36:00,   20.661741487873133     
 16:37:00,   20.661741487873133     
 16:38:00,   20.661741487873133     
 16:39:00,   20.661741487873133     
 16:40:00,   20.661741487873133     
 16:41:00,   20.558478846004352     
 16:42:00,   20.558478846004352     
 16:43:00,   20.455216204135574     
 16:44:00,   20.145428278529227     
 16:45:00,   20.042165636660446     
 16:46:00,   19.835640352922884     
 16:47:00,   19.835640352922884     
 16:48:00,   19.835640352922884     
 16:49:00,   19.835640352922884     
 16:50:00,   19.835640352922884     
 16:51:00,   19.835640352922884     
 16:52:00,   19.835640352922884     
 16:53:00,   19.835640352922884     
 16:54:00,   19.835640352922884     
 16:55:00,   19.835640352922884     
 16:56:00,   19.835640352922884     
 16:57:00,   19.835640352922884     
 16:58:00,   19.835640352922884     
 16:59:00,   19.835640352922884     
 17:00:00,   19.835640352922884     
